Regional Weather Roundup
Issued by NWS

Home | Current Version | Previous Version | Text Only | Print | Product List | Glossary On
Versions: 1 2 3 4 5 6 7 8 9 10 11 12 13 14 15 16 17 18 19 20 21 22 23 24 25 26 27 28 29 30 31 32 33 34 35 36 37 38 39 40 41 42 43 44 45 46 47 48 49 50
000
ASUS43 KLMK 022110
RWRKY
KENTUCKY REGIONAL WEATHER ROUNDUP
NATIONAL WEATHER SERVICE LOUISVILLE KY
500 PM EDT WED SEP 02 2015

NOTE "FAIR" INDICATES FEW OR NO CLOUDS BELOW 12,000 FEET
WITH NO SIGNIFICANT WEATHER AND/OR OBSTRUCTIONS TO VISIBILITY.

KYZ001>023-026-027-061>063-070>075-022200-
WESTERN AND SOUTH CENTRAL KENTUCKY

CITY           SKY/WX    TMP DP  RH WIND       PRES   REMARKS
PADUCAH        FAIR      92  67  43 VRB3      30.02F HX  95
HENDERSON      FAIR      90  66  45 N3        30.02F HX  92
OWENSBORO      FAIR      90  68  48 CALM      30.03F HX  94
HOPKINSVILLE   FAIR      88  68  51 N6        30.03F HX  91
BOWLING GREEN  FAIR      92  62  36 VRB3      30.03F HX  92
GLASGOW        FAIR      90  62  39 N3        30.04F HX  90
$$

KYZ024-025-028>034-038-045-046-053-022200-
NORTH CENTRAL KENTUCKY

CITY           SKY/WX    TMP DP  RH WIND       PRES   REMARKS
LOUISVILLE/SDF CLOUDY    91  64  40 CALM      30.02F HX  92
LOUISVILLE/LOU PTSUNNY   91  65  41 NW3       30.04F HX  93
FORT KNOX      FAIR      90  66  45 VRB5      30.03F HX  92
$$

KYZ035>037-039>044-047>052-055>060-089>105-022200-
NORTHEAST KENTUCKY

CITY           SKY/WX    TMP DP  RH WIND       PRES   REMARKS
LEXINGTON      FAIR      89  64  43 NW6       30.06F HX  90
COVINGTON      FAIR      89  67  47 W5        30.04F HX  92
FRANKFORT      FAIR      90  64  42 CALM      30.04F HX  91
$$

KYZ054-064>069-076>088-106>120-022200-
SOUTHEAST KENTUCKY

CITY           SKY/WX    TMP DP  RH WIND       PRES   REMARKS
JACKSON        FAIR      87  64  46 NW3       30.07F
LONDON         FAIR      87  62  43 E5        30.06F
SOMERSET       FAIR      86  61  42 W3        30.06F
MIDDLESBORO    FAIR      88  65  46 N6        30.06F
MONTICELLO     FAIR      92  64  39 CALM      30.08F HX  93
$$



USA.gov is the U.S. government's official web portal to all federal, state and local government web resources and services.